Regional Weather Roundup
Issued by NWS Kansas City/Pleasant Hill, MO

Home | Current Version | Previous Version | Graphics & Text | Print | Product List | Glossary Off
Versions: 1 2 3 4 5 6 7 8 9 10 11 12 13 14 15 16 17 18 19 20 21 22 23 24 25 26 27 28 29 30 31 32 33 34 35 36 37 38 39 40 41 42 43 44 45 46 47 48 49 50

000
ASUS43 KEAX 211311
RWREAX

WEATHER ROUNDUP FOR EASTERN KANSAS AND NORTHWEST MISSOURI
NATIONAL WEATHER SERVICE KANSAS CITY/PLEASANT HILL MO
800 AM CDT SUN SEP 21 2014

KSZ040-057-103>105-MOZ028-029-037-043-211400-
...KANSAS CITY METROPOLITAN AREA...

CITY           SKY/WX    TMP DP  RH WIND       PRES   REMARKS
K.C. INTL      PTCLDY    58  53  84 W7        30.15R
K.C. DOWNTOWN  CLEAR     60  54  80 CALM      30.14R
LEES SUMMIT    CLEAR     56  51  84 W3        30.14R
OLATHE - IXD   CLEAR     58  54  86 NW6       30.15R
OLATHE - OJC   CLEAR     60  52  74 NW5       30.14R
LAWRENCE       CLEAR     54  52  93 NW6       30.16R

$$

MOZ001>008-011>017-020>025-030>033-038>040-044>046-053-054-211400-
...NORTHERN AND CENTRAL MISSOURI...

CITY           SKY/WX    TMP DP  RH WIND       PRES   REMARKS
ST. JOSEPH     CLEAR     53  51  93 CALM      30.15R
MOSBY          SUNNY     54  54 100 CALM      30.14R
WHITEMAN AFB   SUNNY     59  55  86 NW6       30.11R
CLINTON        SUNNY     59  55  88 CALM      30.12R
SEDALIA        SUNNY     60  51  72 W5        30.11R
WARSAW         NOT AVBL
MARSHALL       SUNNY     61  55  82 W5        30.12R
CHILLICOTHE      N/A     58  51  78 VRB3      30.12R
MOBERLY        SUNNY     57  52  82 SW8       30.08R
KIRKSVILLE     SUNNY     57  51  80 W6        30.07R

$$

MOZ041-047>049-056>058-063>065-088>090-097-211400-
...EASTERN AND SOUTHERN MISSOURI...

CITY           SKY/WX    TMP DP  RH WIND       PRES   REMARKS
ST. LOUIS INTL SUNNY     66  56  70 NW6       30.03R
SPIRIT OF STL  SUNNY     64  55  72 NW3       30.03R
COLUMBIA       SUNNY     61  53  75 NW5       30.08R
JEFFERSON CITY SUNNY     62  54  74 W3        30.08R
MEXICO         SUNNY     61  57  88 W5        30.06R
HANNIBAL       SUNNY     59  54  82 SW9       30.03S HAZE
ROLLA          SUNNY     61  53  75 N10       30.06R
LEBANON        SUNNY     66  61  82 N6G16     30.11R
OSAGE BEACH    SUNNY     63  48  59 N5        30.10R
SPRINGFIELD    SUNNY     69  66  90 N12       30.09R
BRANSON        PTSUNNY   72  66  83 NW6       30.08R
NEVADA         SUNNY     63  57  82 N5        30.14R
JOPLIN         MOSUNNY   67  62  84 N8        30.12R
WEST PLAINS    MOSUNNY   70  66  87 W6        30.06R

$$

IAZ060-094-KSZ022-034>040-054-083-096-NEZ052-066-093-211400-
...KANSAS...SOUTHEAST NEBRASKA AND IOWA...

CITY           SKY/WX    TMP DP  RH WIND       PRES   REMARKS
TOPEKA         CLEAR     57  56  96 CALM      30.17R
MANHATTAN      CLEAR     54  53  97 CALM      30.19R
EMPORIA        CLEAR     60  58  92 NW3       30.17R
CHANUTE        CLEAR     66  58  75 N7        30.14R
WICHITA        PTCLDY    67  54  63 NE12      30.16R
OMAHA          CLEAR     54  48  80 NW7       30.18R
LINCOLN        CLEAR     55  47  74 N8        30.22R
FALLS CITY     CLEAR     56  53  90 NW7       30.16R
LAMONI         SUNNY     56  51  84 NW13      30.09R
DES MOINES     SUNNY     57  48  72 NW10      30.07R

$$




USA.gov is the U.S. government's official web portal to all federal, state and local government web resources and services.